カタログに戻る

STARLINK-3098

運用中通信VLEO
NORAD 49442·PAYLOAD·🇺🇸 United States

打ち上げ Nov 13, 2021 から Cape Canaveral Space Force Station

Loading…

次のパス (今後24時間)

TLE

最新Source: CelesTrak SupGP

元期: Sep 14, 2026, 21:28 UTC

1 49442C 21104AL  26257.89493056  .00778510  00000+0  14286-1 0  2573
2 49442  53.1591  63.0046 0001341  83.4454  59.1734 15.48281412    11

AllMySatでSTARLINK-3098をリアルタイム追跡

Download on the App Store